Location: B�rgermoos
(47.6500°N, 9.0667°E)
Time: 06:16:08
(UTC+00:00)

USA 186 - Pass Details

Date: 18 September 2020
Orbit: 261 x 425 km, 96.9° (Epoch: 12 October)

Event Time Altitude Azimuth Distance (km) Brightness Sun altitude
Exits shadow 18:49:23 17° 160° (SSE) 1,115 3.5 -14.1°
Maximum altitude 18:51:42 75° 76° (ENE) 427 1.6 -14.5°
Drops below altitude 10° 18:54:56 10° 351° (N) 1,510 4.9 -15.0°
Sets 18:56:59 0° 350° (N) 2,395 6.0 -15.3°
